Total_Precipitation_Accumulation
0.45 0.45 0.45 0.43 0.40 0.35 0.30 0.29 0.30 0.33 0.36 0.39 0.45 0.50 0.52 0.55 0.58 0.67 0.80 0.99 1.10 1.12 1.14 1.19 1.19 1.17 1.13 1.09 1.10 1.15 1.20 1.16 0.92 0.70 0.71 0.73 0.69 0.60 0.51 0.42 0.31 0.23 0.17
0.61 0.69 0.70 0.62 0.53 0.44 0.35 0.30 0.29 0.32 0.35 0.36 0.36 0.39 0.40 0.44 0.49 0.59 0.72 0.83 0.92 0.95 0.94 0.93 0.90 0.87 0.86 0.86 0.89 0.93 0.97 1.07 1.01 0.83 0.84 0.85 0.81 0.74 0.69 0.60 0.43 0.27 0.21
0.67 0.91 1.02 0.94 0.80 0.61 0.43 0.29 0.24 0.24 0.27 0.28 0.30 0.34 0.41 0.52 0.60 0.65 0.68 0.71 0.74 0.77 0.83 0.87 0.80 0.75 0.74 0.74 0.74 0.72 0.72 0.85 0.91 0.88 0.84 0.87 0.82 0.76 0.69 0.63 0.57 0.42 0.28
0.62 0.78 0.85 0.78 0.68 0.55 0.37 0.24 0.19 0.19 0.21 0.25 0.30 0.36 0.44 0.52 0.59 0.64 0.64 0.62 0.58 0.55 0.58 0.63 0.65 0.62 0.61 0.63 0.65 0.63 0.63 0.72 0.79 0.83 0.84 0.87 0.86 0.77 0.66 0.61 0.68 0.61 0.49
0.40 0.46 0.51 0.45 0.35 0.29 0.25 0.20 0.18 0.19 0.21 0.26 0.31 0.37 0.41 0.43 0.44 0.40 0.37 0.37 0.36 0.33 0.32 0.36 0.40 0.45 0.48 0.50 0.52 0.60 0.63 0.64 0.65 0.66 0.69 0.76 0.86 0.87 0.74 0.64 0.71 0.73 0.67
0.24 0.28 0.34 0.36 0.29 0.23 0.19 0.16 0.15 0.18 0.21 0.26 0.32 0.37 0.37 0.32 0.36 0.26 0.16 0.15 0.20 0.23 0.27 0.29 0.31 0.31 0.34 0.38 0.40 0.46 0.56 0.58 0.57 0.57 0.59 0.66 0.75 0.82 0.86 0.80 0.76 0.70 0.70
0.22 0.27 0.35 0.37 0.33 0.28 0.21 0.19 0.19 0.20 0.22 0.25 0.26 0.26 0.28 0.31 0.29 0.21 0.12 0.11 0.14 0.17 0.20 0.23 0.22 0.24 0.25 0.25 0.26 0.28 0.32 0.38 0.43 0.49 0.51 0.53 0.56 0.57 0.64 0.68 0.79 0.89 0.92
0.21 0.25 0.31 0.36 0.33 0.31 0.31 0.32 0.33 0.31 0.28 0.28 0.27 0.25 0.30 0.30 0.23 0.18 0.14 0.12 0.17 0.18 0.19 0.19 0.18 0.16 0.17 0.19 0.21 0.20 0.19 0.20 0.24 0.29 0.35 0.44 0.52 0.56 0.57 0.52 0.55 0.71 0.90
0.20 0.28 0.32 0.37 0.37 0.37 0.38 0.39 0.40 0.40 0.35 0.32 0.30 0.31 0.34 0.34 0.26 0.18 0.14 0.17 0.22 0.23 0.22 0.18 0.15 0.13 0.13 0.13 0.18 0.21 0.21 0.20 0.20 0.21 0.24 0.34 0.45 0.49 0.52 0.45 0.36 0.33 0.45
0.22 0.30 0.36 0.41 0.45 0.45 0.47 0.46 0.45 0.47 0.42 0.36 0.33 0.34 0.37 0.42 0.37 0.23 0.17 0.22 0.29 0.30 0.33 0.26 0.18 0.14 0.13 0.11 0.15 0.19 0.20 0.19 0.21 0.22 0.21 0.25 0.30 0.36 0.41 0.38 0.30 0.23 0.21
0.21 0.28 0.38 0.44 0.50 0.53 0.58 0.59 0.58 0.57 0.55 0.51 0.44 0.42 0.45 0.48 0.48 0.31 0.22 0.27 0.36 0.42 0.44 0.34 0.25 0.18 0.13 0.13 0.15 0.19 0.18 0.17 0.21 0.25 0.26 0.28 0.30 0.33 0.33 0.34 0.31 0.26 0.20
0.26 0.34 0.41 0.46 0.44 0.47 0.63 0.67 0.70 0.72 0.68 0.63 0.59 0.51 0.52 0.54 0.50 0.41 0.28 0.26 0.36 0.52 0.58 0.50 0.40 0.30 0.22 0.18 0.17 0.18 0.16 0.15 0.18 0.23 0.28 0.32 0.33 0.32 0.30 0.32 0.35 0.30 0.26
0.33 0.39 0.45 0.47 0.50 0.59 0.68 0.72 0.76 0.80 0.78 0.72 0.70 0.67 0.63 0.64 0.58 0.42 0.33 0.29 0.33 0.50 0.63 0.63 0.51 0.39 0.31 0.24 0.20 0.20 0.18 0.15 0.18 0.22 0.25 0.29 0.32 0.31 0.31 0.34 0.38 0.36 0.29
0.42 0.43 0.45 0.50 0.53 0.57 0.68 0.74 0.78 0.83 0.87 0.84 0.80 0.77 0.76 0.75 0.69 0.56 0.44 0.38 0.40 0.48 0.57 0.61 0.53 0.48 0.41 0.36 0.27 0.21 0.20 0.21 0.23 0.24 0.24 0.29 0.35 0.37 0.36 0.33 0.34 0.35 0.33
0.51 0.49 0.48 0.52 0.58 0.65 0.70 0.74 0.73 0.79 0.78 0.80 0.81 0.83 0.85 0.84 0.68 0.59 0.58 0.52 0.57 0.63 0.68 0.78 0.68 0.59 0.51 0.45 0.36 0.28 0.26 0.29 0.29 0.29 0.30 0.32 0.37 0.42 0.40 0.37 0.36 0.30 0.24
0.64 0.63 0.59 0.56 0.61 0.67 0.72 0.69 0.59 0.55 0.53 0.52 0.55 0.59 0.63 0.58 0.51 0.44 0.44 0.45 0.50 0.59 0.66 0.79 0.77 0.67 0.60 0.54 0.45 0.37 0.34 0.34 0.33 0.35 0.35 0.34 0.37 0.41 0.41 0.34 0.30 0.28 0.22
0.71 0.70 0.66 0.62 0.64 0.67 0.70 0.73 0.75 0.68 0.57 0.52 0.48 0.45 0.48 0.45 0.41 0.38 0.38 0.41 0.43 0.49 0.58 0.71 0.73 0.66 0.62 0.59 0.51 0.42 0.38 0.38 0.39 0.42 0.42 0.37 0.37 0.38 0.40 0.36 0.29 0.27 0.22
0.68 0.68 0.68 0.67 0.66 0.68 0.69 0.70 0.76 0.85 0.83 0.71 0.53 0.44 0.42 0.41 0.36 0.34 0.35 0.37 0.38 0.40 0.54 0.67 0.69 0.63 0.59 0.55 0.51 0.43 0.40 0.42 0.47 0.47 0.47 0.43 0.38 0.35 0.37 0.35 0.29 0.24 0.20
0.66 0.65 0.63 0.64 0.64 0.66 0.64 0.66 0.70 0.80 0.87 0.82 0.70 0.55 0.45 0.42 0.37 0.34 0.34 0.33 0.37 0.40 0.52 0.59 0.63 0.61 0.53 0.49 0.49 0.43 0.40 0.41 0.46 0.48 0.47 0.45 0.41 0.36 0.34 0.33 0.29 0.26 0.19
0.66 0.62 0.62 0.64 0.62 0.60 0.60 0.63 0.68 0.76 0.83 0.78 0.71 0.61 0.51 0.48 0.40 0.32 0.29 0.29 0.37 0.43 0.50 0.55 0.58 0.54 0.47 0.46 0.46 0.42 0.39 0.40 0.45 0.47 0.46 0.45 0.43 0.36 0.32 0.30 0.27 0.23 0.17
0.70 0.61 0.56 0.58 0.57 0.57 0.60 0.63 0.65 0.69 0.74 0.68 0.60 0.50 0.43 0.42 0.34 0.28 0.24 0.27 0.34 0.42 0.46 0.48 0.48 0.45 0.41 0.40 0.41 0.39 0.35 0.37 0.41 0.42 0.43 0.44 0.43 0.38 0.33 0.30 0.26 0.20 0.16
0.73 0.62 0.54 0.51 0.52 0.53 0.54 0.60 0.65 0.65 0.62 0.58 0.52 0.40 0.38 0.37 0.28 0.23 0.22 0.25 0.31 0.39 0.39 0.37 0.39 0.38 0.33 0.31 0.33 0.33 0.33 0.35 0.38 0.37 0.37 0.41 0.40 0.35 0.32 0.30 0.28 0.22 0.16
0.75 0.61 0.51 0.46 0.46 0.46 0.47 0.55 0.61 0.59 0.54 0.49 0.44 0.38 0.36 0.35 0.23 0.18 0.20 0.27 0.32 0.33 0.29 0.28 0.30 0.30 0.27 0.25 0.24 0.26 0.28 0.31 0.33 0.30 0.31 0.35 0.35 0.32 0.28 0.26 0.24 0.20 0.14
0.75 0.65 0.54 0.45 0.44 0.47 0.47 0.51 0.53 0.51 0.45 0.40 0.35 0.32 0.32 0.32 0.25 0.19 0.21 0.29 0.30 0.26 0.23 0.22 0.24 0.24 0.23 0.23 0.23 0.23 0.24 0.27 0.29 0.29 0.27 0.27 0.28 0.27 0.24 0.22 0.20 0.16 0.12
0.75 0.65 0.54 0.43 0.39 0.42 0.45 0.47 0.47 0.45 0.39 0.31 0.26 0.25 0.27 0.29 0.26 0.24 0.25 0.28 0.26 0.21 0.17 0.18 0.21 0.21 0.20 0.19 0.19 0.18 0.20 0.22 0.26 0.27 0.26 0.24 0.24 0.24 0.21 0.20 0.18 0.14 0.10
0.69 0.60 0.52 0.43 0.36 0.35 0.39 0.42 0.40 0.38 0.32 0.27 0.23 0.21 0.22 0.24 0.23 0.21 0.20 0.21 0.20 0.17 0.16 0.17 0.17 0.16 0.17 0.16 0.15 0.15 0.14 0.15 0.18 0.22 0.21 0.20 0.21 0.20 0.18 0.17 0.14 0.11 0.08